Temperature
24 21 20 21 21 22 23 23 23 25 26 26 25 25 23 22 23 22 21 22 22 23 23 23 23 23 22 22 21 21 21 20 20 19 19 19 19 18 18 18 17 17 17 17
21 21 22 23 24 24 24 24 23 24 25 26 26 25 23 22 22 23 22 21 21 22 22 22 22 22 22 21 21 21 20 20 19 19 19 18 18 17 17 17 17 17 17 17
22 23 25 26 25 25 24 23 23 23 23 23 24 23 23 23 22 22 22 22 22 22 22 22 22 22 21 21 21 20 19 19 19 18 18 18 17 17 17 17 17 17 17 17
22 24 24 25 24 23 22 24 24 23 21 20 22 20 21 22 21 21 21 21 20 21 21 21 21 21 21 20 20 19 19 18 18 18 17 18 17 17 17 17 17 17 17 17
21 24 24 23 23 23 23 24 24 23 21 20 20 20 19 18 18 19 19 19 18 18 18 19 19 19 19 19 19 18 18 18 18 18 17 17 17 17 17 17 17 17 17 17
22 24 24 24 24 24 23 22 20 18 18 18 19 20 18 17 17 17 17 16 16 16 16 17 17 17 17 17 18 18 18 17 17 17 17 17 17 16 16 16 16 17 17 16
22 23 24 24 22 22 21 18 17 17 16 17 18 18 16 16 16 15 15 14 15 15 15 16 16 16 16 17 17 17 17 17 17 16 16 16 16 16 16 16 16 16 16 16
20 20 22 23 22 21 21 18 16 16 16 16 18 17 15 15 15 14 14 15 15 15 15 15 16 16 16 16 16 16 16 16 16 16 15 15 15 16 16 16 16 15 15 15
20 21 23 23 23 22 20 17 16 15 16 15 15 17 15 15 14 14 14 15 15 15 15 15 15 15 16 15 16 16 16 15 15 15 15 15 15 15 15 15 15 14 14 14
21 21 22 23 21 19 17 16 14 14 15 13 14 15 15 15 14 14 13 14 14 14 14 14 14 15 15 15 15 15 15 15 14 15 15 15 14 14 14 14 14 14 14 14
20 19 20 21 21 19 17 14 12 11 12 12 12 13 15 14 14 13 13 14 14 14 14 14 14 14 14 14 14 14 14 14 14 14 14 14 14 13 14 14 14 14 13 13
19 16 17 18 19 19 17 14 12 12 12 11 11 12 15 14 14 14 14 14 14 15 15 14 14 14 14 14 14 14 14 14 14 14 14 13 13 13 13 13 14 13 13 13
18 15 15 16 16 18 17 15 13 11 10 10 10 12 14 13 13 14 14 15 15 15 15 14 14 14 14 14 14 14 13 13 13 13 13 13 13 13 13 13 13 12 12 12
17 15 14 15 16 17 17 16 14 11 10 10 11 13 14 13 12 13 14 14 14 14 14 14 14 14 14 14 13 13 13 13 13 13 13 13 13 13 13 12 12 12 12 12
16 16 16 16 18 19 18 18 16 13 12 11 12 13 13 12 12 13 14 13 13 13 13 13 13 13 13 13 13 13 12 12 12 12 12 12 12 12 12 12 12 12 12 12
16 17 18 17 18 18 18 18 18 16 16 14 14 13 13 13 13 13 12 12 12 12 12 12 12 13 13 12 12 12 12 12 12 12 12 12 12 12 12 12 12 12 12 12
16 16 15 15 17 17 16 17 18 18 17 16 14 13 12 12 12 12 12 12 13 13 13 12 12 12 12 12 12 12 11 11 11 11 11 12 12 12 12 12 12 12 12 12
16 15 14 14 15 15 15 17 18 18 17 16 15 14 12 13 14 14 13 13 13 13 13 12 12 12 11 11 11 11 11 11 11 11 11 11 11 11 11 11 11 12 12 12
16 15 14 13 14 15 16 18 18 17 16 16 15 14 14 15 13 13 13 13 13 13 12 12 12 11 11 11 11 11 11 11 11 11 11 11 11 11 11 11 11 11 11 11
15 14 14 13 14 14 16 18 19 17 15 15 15 14 14 12 10 12 15 13 13 13 12 12 11 11 11 10 10 10 11 11 11 11 11 10 10 10 10 11 10 10 10 11
15 15 14 14 14 14 17 19 18 15 14 16 17 16 15 12 14 15 15 14 13 12 12 12 11 11 11 10 10 10 10 10 10 10 10 9 9 10 10 10 10 10 10 10
15 14 14 14 14 14 18 18 16 15 18 17 17 17 16 16 16 15 15 14 13 12 12 12 11 11 11 10 10 10 10 10 10 10 9 9 9 9 10 10 10 10 10 10
14 14 13 14 14 16 19 19 20 20 18 18 17 17 17 17 16 15 14 14 13 13 12 12 11 11 11 10 10 10 10 10 9 9 9 9 9 9 10 10 10 10 9 9
14 15 14 14 15 17 19 19 20 19 19 19 18 18 17 17 16 15 14 14 13 13 12 12 11 11 11 10 10 10 10 9 9 9 8 9 9 9 9 9 9 9 9 9
13 14 13 13 13 16 18 19 19 19 19 19 18 18 17 17 16 15 14 14 13 13 12 12 12 11 11 10 10 10 9 9 9 8 8 8 9 9 9 9 9 9 9 9
14 14 14 14 15 14 17 18 19 19 19 19 18 18 17 17 16 15 14 14 13 13 12 12 12 11 11 10 10 9 9 9 9 9 9 9 9 8 8 8 8 9 9 8
Wind_Speed
3 2 5 9 10 10 8 9 11 11 9 6 9 12 13 17 14 12 11 12 13 12 10 10 10 11 11 11 12 11 8 7 7 4 4 3 2 2 2 2 1 2 3 4
3 6 14 12 9 7 5 5 6 8 9 8 5 3 8 14 17 19 18 17 16 13 11 10 8 8 9 9 9 8 7 6 6 4 3 3 3 2 1 1 3 5 5 5
3 7 6 2 4 6 6 6 5 5 8 9 9 8 2 4 6 12 16 16 15 17 16 12 9 9 9 9 8 8 8 7 6 5 4 3 3 3 3 3 2 3 5 6
4 5 9 6 5 8 6 7 3 5 7 5 6 5 7 4 3 3 7 8 9 9 8 8 10 10 10 10 9 9 8 8 7 6 5 5 3 2 1 0 2 4 5 7
5 4 5 4 1 2 5 7 3 3 4 4 5 2 7 8 8 6 3 1 4 5 4 4 6 8 9 9 8 8 8 7 7 6 6 6 4 2 1 1 4 5 5 6
6 5 3 2 3 3 3 5 7 6 6 4 5 1 4 6 9 9 8 11 10 8 7 6 5 4 5 5 6 7 8 7 6 6 6 7 6 3 1 1 3 4 4 5
4 5 3 1 5 7 7 6 6 7 6 4 6 2 2 6 9 10 10 10 9 8 5 4 5 4 3 4 5 5 6 5 5 6 6 6 6 4 2 1 3 4 4 4
1 6 5 1 3 1 4 7 6 4 4 5 6 4 3 5 6 7 7 6 6 6 5 4 4 4 4 5 5 4 5 6 6 6 6 5 5 3 2 2 2 4 4 4
4 4 4 3 2 3 4 4 5 6 1 2 5 1 3 4 2 3 3 1 1 3 3 2 2 2 1 2 2 4 6 4 4 4 4 4 4 3 1 2 3 4 4 4
3 2 5 3 7 8 6 6 6 4 1 3 5 5 5 6 6 6 5 6 6 5 5 6 5 4 3 3 3 4 5 3 1 2 3 4 4 3 2 2 4 5 5 4
4 2 5 4 1 7 5 5 7 5 5 5 4 7 8 11 9 9 9 9 7 6 5 6 6 4 2 2 4 4 4 3 1 0 3 6 5 4 3 1 2 4 4 5
4 5 2 6 6 4 7 8 8 6 6 6 5 9 11 9 8 9 9 8 7 6 3 5 6 3 2 3 4 4 4 4 3 2 5 6 6 5 4 1 2 3 4 4
6 6 3 8 7 4 4 5 5 6 6 6 6 9 6 5 7 8 9 9 8 6 4 1 1 3 4 6 6 6 5 4 4 3 4 6 6 5 3 2 3 3 3 5
6 5 7 8 8 6 5 5 6 7 6 7 10 13 9 8 9 9 10 10 8 4 3 4 4 5 5 6 6 5 5 4 4 3 3 4 6 6 4 4 2 1 4 5
5 5 7 7 8 7 8 8 8 9 10 10 10 10 13 9 8 8 8 7 6 4 3 3 3 3 4 5 4 4 4 3 3 3 3 3 4 4 2 1 1 3 4 4
3 5 2 3 6 7 11 11 8 11 8 9 8 9 8 4 3 4 5 5 5 5 6 5 4 3 3 3 3 3 3 2 3 4 3 3 4 4 4 4 4 5 5 5
5 7 4 5 6 7 9 9 8 6 6 8 9 10 6 5 6 7 7 7 7 6 6 6 6 4 3 2 1 1 1 1 3 4 4 5 5 6 6 5 5 4 4 4
8 7 5 4 2 6 9 7 7 7 7 8 7 6 8 9 7 8 8 9 8 7 5 5 5 5 3 3 2 1 1 1 2 3 4 4 5 6 5 5 5 4 3 4
11 9 6 5 5 7 8 7 7 7 6 6 7 7 8 6 2 5 9 10 9 7 6 5 6 6 5 5 4 3 1 2 4 4 4 3 5 5 4 3 3 3 4 5
4 6 6 5 5 8 10 6 6 6 4 6 8 9 8 8 4 8 9 10 9 7 6 6 5 4 4 4 4 3 3 5 5 4 3 3 4 4 3 3 1 2 3 5
2 1 5 7 8 9 8 6 7 5 9 9 11 10 9 12 13 9 7 9 9 8 7 7 5 3 4 5 6 5 5 5 5 4 5 5 4 3 3 3 2 3 4 6
4 5 6 5 5 9 8 7 8 11 7 11 12 11 10 12 11 7 10 11 11 9 8 8 5 4 4 6 8 7 6 4 5 5 5 4 3 1 2 3 3 4 6 7
6 8 6 7 9 8 6 9 9 9 9 11 12 11 9 9 10 10 11 12 12 11 9 7 6 6 5 6 8 8 6 6 6 6 5 4 3 2 1 3 4 5 6 6
6 4 3 6 8 8 10 9 7 9 11 13 13 11 10 11 13 12 11 11 10 9 8 7 8 8 7 6 8 8 7 7 7 7 5 4 3 3 4 4 4 6 6 6
9 5 6 9 10 10 9 8 8 7 9 11 12 11 12 16 14 14 12 11 9 8 7 8 9 10 9 9 8 8 8 8 7 7 5 4 3 4 5 5 4 5 4 7
9 10 11 13 12 10 10 10 12 9 10 13 14 12 11 15 16 16 14 12 11 11 10 10 10 9 9 10 10 9 8 8 8 6 5 4 3 3 4 5 5 7 5 6
Wind_Direction
244 131 236 236 223 220 252 272 279 275 275 285 265 247 199 175 174 168 168 170 169 165 161 160 168 184 187 186 180 179 168 164 160 156 158 166 193 237 241 238 262 349 316 301
345 252 242 243 249 245 266 286 303 311 326 344 330 23 150 170 181 183 181 180 175 164 161 163 166 173 178 174 163 152 144 138 140 130 129 138 146 154 132 55 48 32 6 337
271 264 272 292 3 355 330 316 314 328 346 16 18 355 55 185 200 202 195 188 180 173 169 162 143 132 126 119 115 112 114 114 111 112 113 96 80 60 46 41 16 339 341 332
322 355 14 7 21 22 333 322 344 43 43 347 38 336 316 14 40 237 224 204 198 181 158 143 128 118 112 109 105 103 103 105 110 105 98 99 102 99 90 2 311 324 347 338
295 328 357 29 69 34 278 302 328 61 82 17 22 90 300 6 11 328 279 53 22 24 47 89 105 113 116 121 123 125 118 120 122 119 116 106 100 100 79 10 351 341 331 327
247 273 271 265 274 242 292 5 15 35 59 0 306 293 301 17 350 345 32 45 35 25 28 37 46 65 91 109 121 135 137 141 133 119 114 120 118 106 73 341 322 317 317 322
305 302 269 7 329 341 49 66 23 7 10 277 328 14 79 38 31 37 42 39 33 17 13 32 47 40 45 77 98 128 140 128 117 118 126 133 132 125 130 253 308 324 325 316
354 304 281 256 189 261 33 111 143 191 233 281 326 308 94 81 73 62 53 37 26 2 348 351 4 9 11 25 53 86 117 119 128 136 138 133 120 107 82 21 348 328 305 294
169 265 310 266 184 119 100 105 159 141 199 271 288 357 136 152 129 117 110 84 278 278 267 255 259 265 29 352 43 96 112 117 135 142 128 117 110 95 41 329 323 309 298 303
136 268 312 2 71 43 109 131 85 98 176 272 298 300 262 237 224 228 232 236 249 270 271 255 238 224 179 175 154 119 119 122 149 158 138 135 144 163 214 261 288 294 297 303
95 124 314 356 167 174 122 83 95 100 137 167 244 258 235 229 217 217 232 244 251 255 269 269 251 224 176 147 140 130 112 93 52 130 145 142 152 157 157 184 285 297 295 294
119 109 316 296 300 174 146 150 142 153 203 194 207 256 254 235 221 212 224 226 225 223 241 272 259 211 146 114 101 94 83 73 57 77 137 148 149 143 142 171 276 309 317 304
123 103 29 338 339 10 88 144 154 134 139 176 199 259 274 232 227 229 223 215 209 202 182 227 207 140 117 94 85 83 62 42 32 59 142 153 152 153 165 229 284 336 40 63
109 122 164 203 229 254 267 221 171 141 166 209 228 251 272 259 245 249 239 226 223 215 168 153 153 145 134 119 109 93 59 39 34 53 127 155 168 178 194 231 271 55 100 94
98 164 204 227 253 274 286 281 204 190 194 199 235 243 257 258 252 252 237 220 213 194 158 140 148 156 133 122 119 102 73 59 51 67 104 151 174 175 181 207 152 126 116 98
118 162 178 279 276 295 294 284 234 208 203 214 237 258 246 238 245 234 205 193 198 194 170 147 126 122 129 134 133 102 71 59 63 68 69 91 100 96 89 102 111 106 104 103
181 157 157 247 263 302 279 247 214 202 200 198 229 247 226 223 230 225 218 216 215 215 203 175 158 152 151 167 156 132 349 29 76 91 88 93 95 91 86 86 83 79 84 97
182 166 166 217 287 243 246 253 205 200 215 209 219 227 209 218 222 226 217 211 216 211 194 159 150 163 183 206 226 248 313 26 112 123 117 116 106 99 93 86 77 63 57 71
185 167 162 171 218 263 273 246 201 194 227 211 204 219 222 207 159 261 225 204 200 192 170 162 168 180 193 202 208 213 234 134 123 126 121 124 129 126 123 113 94 72 77 78
143 138 150 172 207 240 250 239 154 123 250 224 197 217 210 147 177 249 223 198 190 172 158 167 177 180 193 204 179 156 141 129 134 138 126 119 130 143 158 171 153 89 97 107
43 156 190 208 226 254 251 181 139 175 239 215 210 215 190 186 210 229 190 175 173 170 179 186 186 195 203 173 140 132 128 139 150 138 126 118 111 151 191 189 168 120 113 113
237 220 224 214 229 258 226 185 191 215 204 194 207 214 204 212 216 193 166 164 166 173 187 190 184 196 177 144 133 137 147 150 136 131 131 123 91 95 177 163 143 120 123 117
233 206 205 206 222 252 250 232 226 185 183 198 203 210 198 184 182 174 171 172 178 183 189 184 177 183 178 155 147 156 173 153 130 123 124 124 97 57 104 134 128 124 127 124
272 245 231 276 272 284 283 268 249 206 199 194 193 195 176 177 180 177 178 183 189 189 186 174 167 174 181 176 170 171 170 152 137 138 141 137 108 78 71 80 109 130 137 133
228 254 263 268 272 283 283 281 284 261 220 197 196 194 186 179 182 182 184 189 189 184 177 167 169 176 179 173 172 172 166 152 149 155 161 159 132 111 93 74 70 106 135 157
232 236 245 256 249 242 254 262 274 271 227 206 197 198 186 179 182 183 185 184 181 178 170 168 169 172 173 169 174 180 174 163 160 168 178 182 165 140 129 114 80 54 88 118
Height
1506 1511 1516 1512 1509 1511 1510 1512 1512 1500 1488 1487 1487 1485 1483 1487 1490 1493 1495 1496 1498 1500 1503 1507 1509 1511 1513 1515 1518 1521 1523 1524 1526 1528 1530 1532 1533 1534 1535 1536 1536 1535 1534 1534
1511 1514 1504 1501 1501 1502 1504 1508 1506 1497 1487 1485 1486 1485 1483 1486 1487 1489 1491 1493 1494 1496 1498 1501 1503 1505 1508 1511 1514 1517 1519 1521 1523 1525 1526 1528 1530 1531 1532 1531 1531 1530 1530 1529
1510 1505 1496 1496 1498 1501 1502 1505 1505 1502 1494 1488 1492 1497 1493 1491 1490 1489 1488 1488 1489 1490 1492 1495 1497 1500 1504 1507 1510 1513 1515 1518 1520 1522 1524 1525 1526 1527 1528 1528 1528 1527 1525 1522
1505 1499 1497 1498 1500 1503 1510 1499 1496 1498 1506 1512 1507 1523 1503 1498 1497 1495 1493 1492 1491 1491 1491 1493 1495 1497 1501 1504 1507 1510 1512 1515 1517 1519 1521 1522 1523 1523 1523 1524 1524 1522 1519 1516
1509 1501 1500 1502 1502 1501 1503 1496 1495 1497 1505 1514 1512 1520 1516 1504 1504 1500 1496 1496 1497 1497 1497 1496 1496 1496 1498 1501 1503 1505 1508 1512 1514 1515 1517 1518 1519 1519 1520 1520 1519 1517 1514 1511
1503 1498 1498 1498 1495 1496 1496 1499 1503 1508 1515 1529 1519 1520 1525 1518 1513 1505 1500 1500 1500 1501 1500 1499 1498 1499 1499 1500 1502 1504 1506 1509 1510 1511 1513 1514 1515 1516 1517 1516 1515 1512 1510 1507
1507 1501 1496 1495 1498 1498 1500 1515 1532 1535 1542 1537 1520 1521 1527 1519 1516 1512 1508 1505 1504 1504 1503 1500 1499 1500 1501 1501 1502 1504 1506 1507 1508 1510 1512 1513 1513 1513 1512 1511 1509 1507 1506 1504
1517 1518 1500 1496 1499 1504 1504 1516 1537 1546 1548 1539 1523 1525 1525 1521 1518 1515 1511 1508 1506 1505 1504 1502 1500 1500 1500 1501 1502 1504 1505 1506 1508 1510 1510 1510 1510 1509 1508 1508 1506 1505 1504 1502
1514 1513 1497 1494 1494 1498 1507 1518 1519 1534 1537 1541 1536 1525 1526 1520 1518 1514 1512 1510 1508 1506 1503 1501 1500 1500 1498 1501 1502 1503 1504 1505 1506 1507 1507 1507 1508 1508 1508 1507 1505 1504 1502 1501
1503 1511 1501 1495 1496 1501 1507 1515 1527 1535 1545 1553 1545 1535 1528 1519 1516 1513 1510 1508 1507 1506 1504 1502 1500 1499 1497 1499 1502 1503 1503 1504 1505 1506 1506 1507 1507 1508 1508 1507 1506 1504 1502 1500
1502 1513 1510 1502 1502 1508 1513 1521 1530 1541 1544 1555 1558 1545 1514 1509 1507 1508 1506 1504 1503 1502 1501 1500 1500 1499 1499 1501 1502 1501 1502 1503 1505 1505 1506 1507 1507 1508 1507 1506 1505 1504 1502 1500
1502 1515 1520 1511 1501 1497 1503 1515 1526 1540 1545 1546 1551 1538 1503 1502 1501 1502 1502 1500 1498 1496 1496 1497 1497 1497 1498 1498 1499 1500 1501 1503 1504 1505 1505 1506 1506 1506 1506 1505 1504 1502 1501 1499
1501 1517 1530 1526 1518 1506 1507 1513 1518 1527 1537 1544 1547 1530 1500 1499 1498 1497 1497 1496 1494 1492 1491 1494 1495 1497 1498 1498 1498 1499 1500 1502 1503 1504 1504 1505 1505 1504 1504 1503 1502 1501 1501 1499
1497 1513 1525 1530 1523 1511 1509 1510 1514 1523 1535 1537 1528 1513 1502 1499 1497 1495 1493 1491 1491 1490 1490 1491 1493 1495 1497 1498 1499 1499 1499 1500 1502 1503 1503 1503 1503 1503 1503 1503 1502 1501 1500 1499
1499 1511 1510 1510 1505 1502 1501 1500 1505 1512 1515 1522 1514 1507 1499 1494 1492 1490 1488 1487 1488 1489 1490 1491 1492 1493 1495 1496 1497 1497 1497 1498 1500 1501 1501 1501 1501 1502 1502 1502 1502 1501 1500 1499
1500 1506 1505 1506 1500 1498 1499 1494 1495 1499 1500 1504 1502 1500 1491 1490 1489 1488 1486 1486 1487 1488 1489 1490 1490 1491 1493 1494 1496 1496 1496 1496 1497 1498 1499 1499 1499 1500 1501 1501 1502 1501 1501 1500
1500 1504 1510 1514 1502 1502 1504 1490 1488 1489 1488 1492 1497 1493 1487 1488 1488 1486 1486 1486 1485 1486 1487 1488 1489 1490 1492 1493 1495 1495 1495 1495 1496 1497 1497 1498 1499 1499 1500 1500 1501 1501 1501 1501
1495 1501 1508 1512 1509 1514 1499 1480 1478 1482 1482 1482 1483 1484 1484 1483 1483 1484 1484 1484 1484 1484 1484 1485 1486 1488 1490 1492 1493 1494 1494 1494 1495 1496 1497 1497 1498 1498 1499 1499 1499 1500 1501 1501
1483 1493 1505 1512 1513 1503 1487 1477 1476 1480 1483 1479 1480 1479 1479 1479 1482 1481 1480 1480 1481 1482 1483 1484 1485 1487 1488 1488 1489 1490 1492 1492 1493 1494 1495 1496 1497 1497 1498 1498 1499 1499 1500 1500
1480 1486 1498 1505 1509 1508 1487 1471 1470 1476 1484 1476 1476 1476 1476 1478 1484 1478 1475 1476 1479 1480 1482 1483 1484 1485 1485 1485 1486 1488 1489 1490 1492 1493 1495 1495 1496 1497 1497 1497 1498 1499 1500 1500
1491 1492 1495 1498 1500 1491 1472 1468 1470 1486 1482 1470 1470 1470 1471 1472 1472 1470 1471 1473 1476 1479 1481 1482 1483 1483 1483 1484 1485 1487 1488 1489 1491 1492 1493 1494 1495 1496 1496 1497 1498 1498 1499 1499
1491 1494 1493 1493 1496 1491 1466 1465 1469 1467 1461 1462 1464 1465 1466 1465 1465 1467 1468 1471 1474 1477 1479 1480 1481 1482 1482 1483 1484 1485 1487 1488 1489 1490 1492 1493 1494 1495 1496 1496 1496 1497 1498 1498
1485 1484 1484 1483 1481 1466 1462 1460 1456 1454 1455 1456 1458 1459 1460 1460 1461 1463 1465 1468 1471 1473 1476 1478 1479 1480 1481 1482 1483 1484 1485 1486 1487 1488 1490 1491 1492 1493 1494 1494 1495 1495 1496 1497
1478 1473 1475 1474 1467 1462 1459 1456 1453 1451 1449 1449 1452 1454 1455 1455 1457 1460 1462 1465 1468 1470 1472 1474 1476 1478 1479 1481 1482 1483 1483 1484 1485 1486 1487 1489 1490 1491 1491 1492 1493 1494 1495 1496
1471 1469 1471 1469 1462 1457 1453 1451 1449 1447 1446 1446 1447 1448 1449 1450 1452 1455 1458 1461 1464 1467 1469 1471 1472 1474 1476 1478 1479 1480 1481 1482 1482 1483 1485 1487 1488 1489 1490 1491 1493 1494 1495 1497
1460 1462 1463 1459 1454 1452 1448 1446 1445 1443 1441 1440 1440 1442 1443 1445 1446 1449 1453 1457 1460 1462 1464 1467 1469 1471 1472 1474 1476 1478 1479 1480 1481 1482 1483 1485 1487 1488 1490 1491 1493 1494 1496 1497